User: anonymous   Login
Location: Prairie View Elementary School
(39.8322°N, 99.5698°W)
Time: 13:24:47
(UTC+00:00)
Language:

Cosmos 1371 Rocket - Orbit

View from above orbital plane
View from above orbital plane
View from above satellite
View from above satellite

Ground track
Ground track

The orbit data is extracted from the following two-line orbital elements,

1 13242U 82051B   20053.04512784  .00000010  00000-0  12372-4 0  9999
2 13242  74.0458 355.1249 0025763 313.2689  46.6314 14.35968518974257
Epoch (UTC): 22 February 2020 01:04:59
Eccentricity: 0.0025763
inclination: 74.0458°
perigee height: 753 km
apogee height: 790 km
right ascension of ascending node: 355.1249°
argument of perigee: 313.2689°
revolutions per day: 14.35968518
mean anomaly at epoch: 46.6314°
orbit number at epoch: 97425

The dashed part of the orbit path shows where the satellite is in the earth's shadow,  

DLR